1513573201.15,60235,6.38,72770.5,-17.31,-45.61,-44.53,0,*66
1513573202.38,60236,6.38,72766.8,-17.31,-45.95,-45.07,0,*6E
1513573203.6,60237,6.44,72766.8,-17.31,-45.61,-44.87,0,*6D
1513573204.83,60238,6.44,72766.5,-17.31,-45.13,-44.33,0,*68
1513573206.08,60239,6.44,72764.5,-17.31,-44.93,-44.07,0,*67
1513573207.29,60240,6.44,72768.5,-17.31,-45.13,-44.07,0,*60
1513573208.53,60241,6.44,72770.0,-17.31,-45.13,-44.33,0,*66
1513573209.76,60242,6.38,72766.3,-17.27,-44.87,-43.95,0,*65
1513573211.05,60243,6.44,72770.0,-17.29,-45.07,-44.13,0,*6A
1513573212.3,60244,6.44,72768.5,-17.27,-45.47,-44.67,0,*64
1513573213.57,60245,6.38,72764.3,-17.27,-45.27,-44.47,0,*61
1513573214.8,60246,6.44,72764.8,-17.29,-45.33,-44.53,0,*6C
1513573216.02,60247,6.38,72766.8,-17.27,-45.21,-44.41,0,*63
1513573217.25,60248,6.44,72770.3,-17.27,-45.47,-44.61,0,*6E
1513573218.49,60249,6.44,72772.8,-17.27,-45.47,-44.61,0,*6F
1513573219.72,60250,6.44,72766.5,-17.27,-45.41,-44.47,0,*65
1513573221.01,60251,6.44,72770.3,-17.25,-45.27,-44.47,0,*66
1513573222.27,60252,6.38,72768.8,-17.25,-45.53,-44.67,0,*64
1513573223.51,60253,6.38,72770.5,-17.25,-45.53,-44.79,0,*6A
1513573224.79,60254,6.44,72770.0,-17.25,-46.07,-45.27,0,*65
1513573226.08,60255,6.44,72770.3,-17.25,-46.07,-45.27,0,*64
1513573227.32,60256,6.44,72778.8,-17.23,-46.15,-45.41,0,*62
1513573228.59,60257,6.44,72774.3,-17.25,-46.07,-45.41,0,*66
1513573229.85,60258,6.44,72776.0,-17.25,-46.07,-45.41,0,*69
1513573231.11,60259,6.38,72768.5,-17.25,-46.07,-45.21,0,*6E
1513573232.32,60260,6.38,72768.3,-17.27,-45.87,-44.99,0,*6F
1513573233.54,60261,6.38,72770.0,-17.27,-45.95,-45.21,0,*6F
1513573234.8,60262,6.44,72770.5,-17.27,-45.73,-45.07,0,*60
1513573236.04,60263,6.44,72772.5,-17.27,-45.73,-45.21,0,*65
1513573237.3,60264,6.38,72766.5,-17.25,-46.07,-45.21,0,*60
1513573238.57,60265,6.44,72772.0,-17.25,-46.07,-45.21,0,*61
1513573239.82,60266,6.44,72770.8,-17.27,-45.73,-45.07,0,*64
1513573241.08,60267,6.44,72774.8,-17.27,-45.73,-45.07,0,*65
1513573242.32,60268,6.44,72774.3,-17.27,-45.95,-45.27,0,*60
1513573243.58,60269,6.44,72776.0,-17.25,-45.95,-45.27,0,*63
1513573244.84,60270,6.44,72772.8,-17.25,-45.95,-45.27,0,*6B
1513573246.08,60271,6.44,72774.8,-17.25,-45.95,-45.21,0,*6C
1513573247.3,60272,6.38,72772.5,-17.27,-45.95,-45.21,0,*6D
1513573248.53,60273,6.44,72774.3,-17.27,-45.73,-44.99,0,*66
1513573249.76,60274,6.44,72772.5,-17.27,-45.73,-44.79,0,*6F
1513573250.99,60275,6.38,72770.5,-17.25,-45.67,-44.79,0,*69
1513573252.27,60276,6.44,72772.3,-17.25,-45.73,-45.07,0,*67
1513573253.53,60277,6.38,72772.5,-17.25,-45.73,-44.87,0,*6F
1513573254.74,60278,6.44,72772.5,-17.23,-45.87,-44.87,0,*6D
1513573255.99,60279,6.44,72776.8,-17.25,-45.87,-45.07,0,*63
1513573257.26,60280,6.38,72772.3,-17.25,-46.07,-45.41,0,*6C
1513573258.5,60281,6.44,72776.3,-17.23,-46.07,-45.41,0,*6B
1513573259.73,60282,6.44,72774.5,-17.25,-45.87,-45.21,0,*63
1513573261.0,60283,6.44,72776.8,-17.23,-46.07,-45.27,0,*69
1513573262.26,60284,6.44,72776.5,-17.25,-45.95,-45.27,0,*60
1513573263.47,60285,6.44,72780.0,-17.23,-45.67,-44.99,0,*6E
1513573264.7,60286,6.38,72776.3,-17.25,-45.67,-44.79,0,*65
1513573265.96,60287,6.44,72780.0,-17.25,-45.53,-44.67,0,*6C
1513573267.23,60288,6.44,72778.5,-17.25,-45.47,-44.67,0,*66
1513573268.47,60289,6.44,72780.3,-17.23,-45.47,-44.79,0,*6E
1513573269.71,60290,6.38,72778.8,-17.25,-45.53,-44.87,0,*64
1513573271.0,60291,6.44,72782.5,-17.21,-45.47,-44.93,0,*61
1513573272.23,60292,6.44,72778.0,-17.23,-45.73,-44.99,0,*6D
1513573273.46,60293,6.38,72776.3,-17.25,-45.67,-44.87,0,*60
1513573274.69,60294,6.44,72774.8,-17.23,-45.73,-44.99,0,*6B
1513573275.93,60295,6.44,72772.8,-17.23,-45.87,-45.27,0,*65
1513573277.19,60296,6.44,72766.8,-17.23,-46.07,-45.27,0,*6D
1513573278.43,60297,6.44,72766.0,-17.23,-46.07,-45.41,0,*6C
1513573279.69,60298,6.38,72766.8,-17.23,-46.15,-45.47,0,*66
1513573280.91,60299,6.38,72764.5,-17.23,-45.95,-45.21,0,*6C
1513573282.12,60300,6.44,72772.5,-17.23,-45.87,-44.99,0,*6C
1513573283.35,60301,6.44,72770.8,-17.23,-45.87,-45.07,0,*6B
1513573284.61,60302,6.38,72770.3,-17.25,-46.07,-45.21,0,*61
1513573285.84,60303,6.44,72770.0,-17.23,-45.73,-44.41,0,*61
1513573287.06,60304,6.44,72774.0,-17.23,-44.27,-41.99,0,*66
1513573288.3,60305,6.44,72770.3,-17.25,-41.73,-40.53,0,*62
1513573289.54,60306,6.38,72768.3,-17.23,-42.51,-42.19,0,*68
1513573290.79,60307,6.44,72770.5,-17.23,-44.79,-44.01,0,*6A
1513573292.05,60308,6.44,72768.5,-17.23,-45.27,-44.47,0,*6D
1513573293.28,60309,6.38,72768.0,-17.23,-45.73,-45.21,0,*6C
1513573294.53,60310,6.38,72766.5,-17.25,-46.35,-45.53,0,*66
1513573295.77,60311,6.38,72764.8,-17.23,-46.49,-45.53,0,*6A
1513573297.04,60312,6.44,72770.3,-17.25,-46.27,-45.41,0,*64
1513573298.3,60313,6.44,72768.8,-17.25,-46.49,-45.67,0,*69
1513573299.54,60314,6.38,72766.3,-17.25,-46.35,-45.67,0,*65
1513573300.81,60315,6.38,72766.5,-17.25,-46.27,-45.41,0,*63
1513573302.07,60316,6.38,72774.0,-17.25,-45.95,-45.27,0,*6A
1513573303.33,60317,6.44,72774.8,-17.25,-45.73,-45.21,0,*65
1513573304.58,60318,6.38,72768.3,-17.25,-45.73,-45.21,0,*6A
1513573305.86,60319,6.38,72770.0,-17.25,-45.73,-45.07,0,*6F
1513573307.1,60320,6.44,72776.5,-17.25,-45.95,-45.21,0,*69
1513573308.34,60321,6.38,72770.8,-17.25,-45.95,-45.21,0,*68
1513573309.55,60322,6.44,72772.5,-17.23,-45.95,-45.41,0,*6B
1513573310.81,60323,6.38,72772.0,-17.25,-46.07,-45.41,0,*64
1513573312.05,60324,6.44,72770.3,-17.23,-46.15,-45.41,0,*66
1513573313.29,60325,6.44,72768.8,-17.23,-46.15,-45.41,0,*67
1513573314.53,60326,6.44,72766.0,-17.23,-46.07,-45.41,0,*67
1513573315.77,60327,6.38,72766.8,-17.23,-46.07,-45.41,0,*66
1513573317.04,60328,6.44,72770.0,-17.25,-46.15,-45.41,0,*6C
1513573318.33,60329,6.38,72758.0,-17.25,-46.07,-45.27,0,*6E
1513573319.57,60330,6.44,72766.0,-17.23,-46.15,-45.41,0,*63
1513573320.83,60331,6.44,72774.3,-17.25,-46.07,-45.41,0,*67
1513573322.06,60332,6.38,72768.0,-17.23,-45.73,-45.21,0,*64
1513573323.32,60333,6.38,72766.0,-17.25,-45.73,-44.87,0,*6E
1513573324.58,60334,6.44,72768.0,-17.21,-45.61,-44.93,0,*6B
1513573325.8,60335,6.44,72762.5,-17.23,-45.67,-44.87,0,*6B
1513573327.03,60336,6.44,72766.0,-17.23,-45.73,-44.99,0,*62
1513573328.26,60337,6.44,72764.0,-17.23,-45.67,-45.07,0,*60
1513573329.49,60338,6.44,72768.8,-17.23,-45.73,-45.21,0,*6E
1513573330.76,60339,6.38,72766.0,-17.23,-46.07,-45.27,0,*69
1513573331.99,60340,6.44,72768.8,-17.23,-45.95,-45.27,0,*6F
1513573333.23,60341,6.44,72768.5,-17.23,-46.07,-45.41,0,*66
1513573334.5,60342,6.44,72768.8,-17.23,-46.15,-45.47,0,*60
1513573335.76,60343,6.44,72764.5,-17.23,-46.15,-45.47,0,*61
1513573337.03,60344,6.44,72764.8,-17.23,-46.15,-45.47,0,*66
1513573338.27,60345,6.38,72760.8,-17.23,-46.35,-45.73,0,*62
1513573339.49,60346,6.38,72758.8,-17.23,-46.35,-45.53,0,*63
1513573340.7,60347,6.44,72762.0,-17.23,-46.35,-45.67,0,*65
1513573341.97,60348,6.44,72762.3,-17.25,-46.49,-45.87,0,*69
1513573343.21,60349,6.38,72766.0,-17.23,-46.49,-45.67,0,*60
1513573344.43,60350,6.38,72768.5,-17.23,-46.35,-45.53,0,*64
1513573345.67,60351,6.38,72768.3,-17.23,-46.15,-45.41,0,*64
1513573346.94,60352,6.44,72770.3,-17.23,-46.15,-45.27,0,*67
1513573348.18,60353,6.38,72770.0,-17.23,-46.07,-45.41,0,*65
1513573349.42,60354,6.44,72770.3,-17.23,-46.07,-45.21,0,*64
1513573350.71,60355,6.44,72766.0,-17.25,-46.07,-45.27,0,*65
1513573351.97,60356,6.44,72766.3,-17.23,-46.07,-45.27,0,*60
1513573353.21,60357,6.38,72764.8,-17.23,-46.07,-45.41,0,*61
1513573354.48,60358,6.44,72766.0,-17.23,-46.15,-45.47,0,*6B
1513573355.74,60359,6.44,72764.5,-17.23,-46.27,-45.47,0,*6B
1513573356.99,60360,6.44,72764.8,-17.23,-46.15,-45.53,0,*65
1513573358.28,60361,6.38,72766.5,-17.25,-46.15,-45.47,0,*67
1513573359.53,60362,6.44,72764.3,-17.23,-46.27,-45.53,0,*66
1513573360.77,60363,6.44,72764.8,-17.23,-46.27,-45.53,0,*67
1513573362.04,60364,6.44,72764.8,-17.23,-46.15,-45.47,0,*64
1513573363.3,60365,6.38,72764.3,-17.23,-46.15,-45.47,0,*65
1513573364.54,60366,6.38,72764.3,-17.25,-46.35,-45.67,0,*60
1513573365.79,60367,6.44,72764.3,-17.25,-46.35,-45.53,0,*66
1513573367.05,60368,6.44,72764.8,-17.25,-46.07,-45.41,0,*6B
1513573368.26,60369,6.44,72764.8,-17.23,-45.95,-45.41,0,*64
1513573369.5,60370,6.44,72766.3,-17.23,-46.07,-45.41,0,*64
1513573370.77,60371,6.44,72764.5,-17.23,-46.15,-45.47,0,*60
1513573372.01,60372,6.44,72770.8,-17.23,-46.15,-45.41,0,*65
1513573373.27,60373,6.44,72768.0,-17.23,-46.15,-45.47,0,*62
1513573374.51,60374,6.38,72770.3,-17.25,-46.35,-45.67,0,*63
1513573375.76,60375,6.44,72772.8,-17.23,-46.27,-45.53,0,*60
1513573377.0,60376,6.38,72772.8,-17.23,-46.15,-45.41,0,*61
1513573378.29,60377,6.44,72774.8,-17.25,-46.07,-45.47,0,*63
1513573379.55,60378,6.44,72776.0,-17.23,-46.27,-45.47,0,*68
1513573380.82,60379,6.44,72774.0,-17.23,-46.27,-45.47,0,*69
1513573382.11,60380,6.44,72770.3,-17.25,-46.27,-45.47,0,*69
1513573383.35,60381,6.44,72772.0,-17.23,-46.15,-45.53,0,*6A
1513573384.62,60382,6.44,72768.5,-17.23,-46.15,-45.47,0,*6C
1513573385.89,60383,6.38,72770.3,-17.25,-46.15,-45.41,0,*6D
1513573387.1,60384,6.44,72774.0,-17.23,-45.95,-45.41,0,*67
1513573388.36,60385,6.44,72770.3,-17.23,-46.07,-45.27,0,*6E
1513573389.6,60386,6.44,72774.8,-17.23,-46.15,-45.67,0,*6A
1513573390.84,60387,6.38,72774.0,-17.23,-46.49,-45.87,0,*6C
1513573392.11,60388,6.38,72770.3,-17.25,-46.49,-45.87,0,*65
1513573393.35,60389,6.38,72770.3,-17.23,-46.49,-45.87,0,*62
1513573394.62,60390,6.38,72770.5,-17.25,-46.35,-45.73,0,*6C
1513573395.86,60391,6.38,72768.8,-17.25,-46.55,-45.87,0,*60
1513573397.1,60392,6.44,72770.0,-17.25,-46.55,-45.87,0,*63
1513573398.34,60393,6.38,72766.8,-17.23,-46.55,-45.73,0,*6F
1513573399.62,60394,6.44,72770.8,-17.25,-46.49,-45.73,0,*63
1513573400.91,60395,6.44,72768.8,-17.25,-46.49,-45.73,0,*62
1513573402.18,60396,6.44,72770.3,-17.25,-46.49,-45.67,0,*64
1513573403.42,60397,6.44,72770.5,-17.23,-46.35,-45.73,0,*6D
1513573404.69,60398,6.44,72772.0,-17.25,-46.49,-45.53,0,*6D
1513573405.95,60399,6.44,72774.3,-17.25,-46.15,-45.67,0,*62
1513573407.22,60400,6.44,72772.5,-17.25,-46.15,-45.53,0,*62
1513573408.49,60401,6.44,72778.0,-17.25,-46.27,-45.67,0,*65
1513573409.73,60402,6.44,72772.8,-17.25,-46.35,-45.53,0,*62
1513573411.02,60403,6.44,72768.0,-17.25,-46.15,-45.47,0,*64
1513573412.31,60404,6.44,72768.3,-17.25,-46.27,-45.47,0,*62
1513573413.58,60405,6.38,72770.5,-17.25,-46.15,-45.41,0,*64
1513573414.82,60406,6.44,72774.0,-17.23,-46.07,-45.53,0,*61
1513573416.11,60407,6.38,72774.3,-17.25,-46.07,-45.47,0,*63
1513573417.35,60408,6.38,72770.5,-17.23,-46.27,-45.53,0,*6D
1513573418.62,60409,6.38,72766.8,-17.23,-46.27,-45.47,0,*69
1513573419.86,60410,6.44,72766.5,-17.23,-46.15,-45.53,0,*65
1513573421.13,60411,6.44,72766.8,-17.25,-46.27,-45.67,0,*64
1513573422.4,60412,6.44,72764.5,-17.25,-46.27,-45.53,0,*60
1513573423.67,60413,6.44,72764.3,-17.25,-46.27,-45.53,0,*61
1513573424.96,60414,6.44,72764.3,-17.25,-46.27,-45.73,0,*64
1513573426.23,60415,6.44,72770.0,-17.25,-46.27,-45.53,0,*67
1513573427.45,60416,6.44,72772.3,-17.23,-46.35,-45.53,0,*61
1513573428.69,60417,6.38,72768.3,-17.23,-46.35,-45.73,0,*62
1513573429.93,60418,6.44,72768.3,-17.23,-46.69,-45.87,0,*6F
1513573431.2,60419,6.44,72770.3,-17.25,-46.55,-46.07,0,*6C
1513573432.44,60420,6.44,72772.3,-17.25,-46.55,-45.95,0,*6E
1513573433.68,60421,6.44,72772.8,-17.25,-46.35,-45.67,0,*64
1513573434.94,60422,6.44,72776.8,-17.25,-46.35,-45.73,0,*62
1513573436.22,60423,6.44,72774.0,-17.25,-46.27,-45.53,0,*62
1513573437.48,60424,6.44,72776.0,-17.25,-46.27,-45.67,0,*62
1513573438.73,60425,6.44,72774.3,-17.23,-46.15,-45.53,0,*63
1513573439.97,60426,6.44,72778.5,-17.23,-46.07,-45.53,0,*63
1513573441.26,60427,6.44,72776.5,-17.25,-46.15,-45.47,0,*62
1513573442.55,60428,6.44,72778.0,-17.25,-46.15,-45.47,0,*6D
1513573443.79,60429,6.44,72776.8,-17.23,-46.07,-45.41,0,*6F
1513573445.05,60430,6.44,72776.8,-17.25,-46.15,-45.41,0,*62
1513573446.31,60431,6.44,72774.3,-17.25,-46.07,-45.41,0,*60
1513573447.58,60432,6.44,72776.3,-17.25,-46.07,-45.41,0,*63
1513573448.86,60433,6.44,72772.5,-17.25,-46.07,-45.47,0,*64
1513573450.15,60434,6.44,72778.5,-17.25,-46.15,-45.47,0,*60
1513573451.4,60435,6.44,72776.0,-17.23,-46.15,-45.41,0,*61
1513573452.64,60436,6.44,72776.0,-17.23,-46.15,-45.53,0,*61
1513573453.91,60437,6.44,72774.3,-17.23,-46.15,-45.47,0,*65
1513573455.15,60438,6.44,72778.8,-17.23,-46.27,-45.53,0,*6E
1513573456.44,60439,6.44,72778.8,-17.25,-46.15,-45.47,0,*6D
1513573457.71,60440,6.38,72774.8,-17.23,-46.15,-45.47,0,*65
1513573458.98,60441,6.38,72774.3,-17.25,-46.27,-45.53,0,*66
1513573460.19,60442,6.38,72772.3,-17.23,-46.35,-45.67,0,*67
1513573461.43,60443,6.44,72776.8,-17.23,-46.27,-45.67,0,*65
1513573462.7,60444,6.44,72778.3,-17.23,-46.49,-45.73,0,*6F
1513573463.94,60445,6.44,72778.5,-17.25,-46.55,-45.87,0,*6E
1513573465.2,60446,6.44,72776.5,-17.25,-46.69,-45.95,0,*61
1513573466.46,60447,6.38,72770.8,-17.25,-46.69,-45.95,0,*60
1513573467.73,60448,6.44,72772.0,-17.25,-46.75,-46.07,0,*6A
1513573469.0,60449,6.44,72770.8,-17.23,-46.69,-46.07,0,*60
1513573470.24,60450,6.44,72768.8,-17.23,-46.69,-45.95,0,*60
1513573471.53,60451,6.44,72770.5,-17.25,-46.69,-46.07,0,*6F
1513573472.78,60452,6.38,72764.5,-17.27,-46.49,-45.53,0,*6E
1513573474.02,60453,6.44,72766.5,-17.27,-46.49,-45.67,0,*68
1513573475.26,60454,6.38,72766.0,-17.25,-46.35,-45.87,0,*68
1513573476.56,60455,6.44,72764.0,-17.25,-46.69,-46.07,0,*6B
1513573477.85,60456,6.44,72766.0,-17.25,-46.69,-46.15,0,*6B
1513573479.14,60457,6.44,72770.3,-17.25,-46.69,-46.15,0,*6A
1513573480.42,60458,6.44,72768.8,-17.25,-46.83,-46.15,0,*61
1513573481.66,60459,6.44,72764.8,-17.27,-46.75,-46.07,0,*68
1513573482.91,60460,6.44,72770.0,-17.27,-46.55,-46.07,0,*60
1513573484.15,60461,6.44,72768.5,-17.27,-46.69,-45.95,0,*66
1513573485.39,60462,6.44,72768.8,-17.27,-46.55,-45.73,0,*62
1513573486.61,60463,6.38,72770.3,-17.27,-46.55,-45.87,0,*68
1513573487.89,60464,6.44,72770.8,-17.29,-46.61,-46.01,0,*6B
1513573489.13,60465,6.44,72770.8,-17.27,-46.69,-45.95,0,*62
1513573490.39,60466,6.44,72770.8,-17.29,-46.61,-45.95,0,*67
1513573491.66,60467,6.44,72768.3,-17.29,-46.61,-45.95,0,*66
1513573492.92,60468,6.44,72772.0,-17.29,-46.61,-45.95,0,*69
1513573494.19,60469,6.44,72772.5,-17.27,-46.49,-45.73,0,*64
1513573495.46,60470,6.44,72768.8,-17.29,-46.55,-45.81,0,*62
1513573496.7,60471,6.44,72764.3,-17.29,-46.55,-45.95,0,*66
1513573497.95,60472,6.44,72764.3,-17.27,-46.49,-45.87,0,*65
1513573499.19,60473,6.38,72764.8,-17.27,-46.49,-45.87,0,*64
1513573500.44,60474,6.44,72766.3,-17.27,-46.49,-45.87,0,*63
1513573501.66,60475,6.44,72764.5,-17.27,-46.55,-45.95,0,*6C
1513573502.95,60476,6.44,72766.3,-17.29,-46.61,-45.81,0,*63
1513573504.24,60477,6.38,72760.5,-17.29,-46.41,-45.81,0,*60
1513573505.48,60478,6.44,72764.5,-17.27,-46.55,-45.81,0,*64
1513573506.72,60479,6.38,72762.0,-17.27,-46.41,-45.87,0,*66
1513573507.99,60480,6.44,72772.0,-17.27,-46.49,-45.73,0,*63
1513573509.26,60481,6.44,72770.0,-17.29,-46.55,-45.81,0,*6C
1513573510.52,60482,6.44,72774.5,-17.29,-46.55,-45.73,0,*62
1513573511.78,60483,6.44,72774.8,-17.29,-46.41,-45.67,0,*63
1513573513.0,60484,6.44,72774.3,-17.27,-46.35,-45.87,0,*67
1513573514.27,60485,6.38,72770.0,-17.27,-46.49,-45.73,0,*66
1513573515.54,60486,6.44,72768.5,-17.29,-46.55,-45.81,0,*6B
1513573516.81,60487,6.44,72772.3,-17.29,-46.55,-45.81,0,*6A
1513573518.08,60488,6.44,72770.8,-17.29,-46.55,-45.81,0,*65
1513573519.34,60489,6.44,72770.5,-17.29,-46.41,-45.95,0,*64
1513573520.6,60490,6.44,72770.5,-17.29,-46.55,-45.81,0,*6C
1513573521.87,60491,6.44,72772.8,-17.29,-46.55,-45.81,0,*6D
1513573523.17,60492,6.44,72774.8,-17.29,-46.61,-45.81,0,*69
1513573524.44,60493,6.44,72778.3,-17.29,-46.61,-46.01,0,*63
1513573525.71,60494,6.44,72776.0,-17.29,-46.61,-46.01,0,*64
1513573526.98,60495,6.44,72772.0,-17.29,-46.61,-46.01,0,*65
1513573528.23,60496,6.44,72774.5,-17.29,-46.55,-45.95,0,*6F
1513573529.49,60497,6.44,72774.3,-17.29,-46.61,-45.95,0,*69
1513573530.76,60498,6.44,72768.8,-17.29,-46.61,-45.95,0,*66
1513573532.0,60499,6.44,72770.5,-17.29,-46.55,-45.95,0,*60
1513573533.24,60500,6.44,72768.3,-17.29,-46.75,-45.95,0,*63
1513573534.48,60501,6.44,72770.3,-17.31,-46.61,-46.01,0,*60
1513573535.73,60502,6.44,72768.3,-17.31,-46.55,-45.81,0,*6F
1513573536.99,60503,6.44,72772.8,-17.31,-46.41,-45.81,0,*6B
1513573538.25,60504,6.44,72772.3,-17.31,-46.41,-45.81,0,*6C
1513573539.49,60505,6.44,72770.0,-17.31,-46.55,-45.81,0,*68
1513573540.71,60506,6.44,72770.3,-17.31,-46.55,-45.95,0,*6E
1513573541.97,60507,6.44,72768.5,-17.31,-46.61,-45.81,0,*6D
1513573543.19,60508,6.44,72772.0,-17.31,-46.55,-45.95,0,*60
1513573544.43,60509,6.44,72772.5,-17.31,-46.61,-45.95,0,*66
1513573545.67,60510,6.44,72772.3,-17.33,-46.35,-45.61,0,*66
1513573546.89,60511,6.44,72768.5,-17.31,-46.35,-45.53,0,*64
1513573548.12,60512,6.44,72768.0,-17.33,-45.87,-45.13,0,*6B
1513573549.39,60513,6.44,72766.3,-17.31,-45.47,-43.67,0,*61
1513573550.64,60514,6.38,72764.0,-17.31,-43.01,-41.67,0,*60
1513573551.86,60515,6.44,72764.8,-17.31,-42.25,-42.89,0,*65
1513573553.09,60516,6.44,72764.5,-17.31,-42.75,-42.57,0,*60
1513573554.33,60517,6.44,72764.3,-17.33,-43.95,-44.41,0,*6D
1513573555.59,60518,6.44,72766.0,-17.31,-45.73,-45.27,0,*6F
1513573556.82,60519,6.44,72770.0,-17.31,-46.21,-45.73,0,*6B
1513573558.09,60520,6.44,72766.3,-17.33,-46.49,-45.67,0,*68
1513573559.32,60521,6.44,72766.5,-17.31,-46.41,-45.67,0,*63
1513573560.6,60522,6.44,72764.8,-17.33,-46.41,-45.81,0,*6A
1513573561.84,60523,6.44,72766.0,-17.31,-46.01,-45.07,0,*63
1513573563.08,60524,6.44,72760.0,-17.33,-45.61,-45.21,0,*67
1513573564.32,60525,6.44,72760.8,-17.33,-46.21,-45.61,0,*65
1513573565.61,60526,6.44,72760.5,-17.33,-46.41,-45.81,0,*6E
1513573566.85,60527,6.44,72762.8,-17.31,-46.07,-45.41,0,*63
1513573568.1,60528,6.44,72760.0,-17.31,-45.81,-45.27,0,*61
1513573569.34,60529,6.44,72760.3,-17.33,-46.01,-44.53,0,*6B
1513573570.55,60530,6.44,72760.3,-17.31,-43.87,-43.01,0,*6A
1513573571.81,60531,6.44,72756.8,-17.33,-44.21,-43.87,0,*6C
1513573573.05,60532,6.44,72762.5,-17.33,-45.41,-45.33,0,*61
1513573574.31,60533,6.44,72764.0,-17.33,-44.99,-44.93,0,*6F
1513573575.58,60534,6.44,72760.5,-17.33,-46.07,-45.61,0,*61
1513573576.86,60535,6.44,72764.5,-17.33,-46.49,-46.01,0,*6F
1513573578.11,60536,6.44,72758.3,-17.33,-46.41,-45.67,0,*67
1513573579.37,60537,6.38,72760.3,-17.33,-46.41,-45.67,0,*66
1513573580.63,60538,6.44,72766.0,-17.33,-46.41,-45.61,0,*6F
1513573581.92,60539,6.44,72762.3,-17.33,-46.49,-45.81,0,*68
1513573583.19,60540,6.44,72766.0,-17.33,-46.27,-45.53,0,*61
1513573584.46,60541,6.44,72766.3,-17.33,-46.27,-45.53,0,*60
1513573585.76,60542,6.44,72762.0,-17.33,-46.49,-45.81,0,*64
1513573587.03,60543,6.38,72762.0,-17.33,-46.27,-45.53,0,*62
1513573588.27,60544,6.44,72764.3,-17.33,-46.21,-45.53,0,*63
1513573589.51,60545,6.44,72762.8,-17.33,-46.21,-45.53,0,*62
1513573590.75,60546,6.44,72762.0,-17.33,-46.21,-45.53,0,*61
1513573592.02,60547,6.44,72764.0,-17.33,-46.27,-45.61,0,*67
1513573593.31,60548,6.44,72764.0,-17.33,-46.49,-45.81,0,*6E
1513573594.54,60549,6.44,72760.5,-17.31,-46.21,-45.47,0,*69
1513573595.81,60550,6.44,72764.0,-17.33,-46.07,-45.41,0,*61
1513573597.02,60551,6.44,72760.0,-17.31,-46.01,-45.33,0,*61
1513573598.26,60552,6.44,72760.5,-17.33,-46.01,-45.41,0,*65
1513573599.52,60553,6.44,72760.0,-17.33,-46.07,-45.41,0,*62
1513573600.74,60554,6.44,72760.0,-17.31,-46.21,-45.33,0,*66
1513573602.01,60555,6.44,72766.8,-17.33,-46.27,-45.53,0,*65
1513573603.25,60556,6.44,72762.0,-17.31,-45.61,-44.93,0,*68
1513573604.5,60557,6.44,72764.0,-17.31,-46.15,-45.53,0,*64
1513573605.76,60558,6.44,72760.5,-17.33,-46.27,-45.61,0,*69
1513573607.0,60559,6.44,72762.8,-17.33,-46.21,-45.53,0,*6F
1513573608.26,60560,6.44,72762.8,-17.31,-45.81,-45.07,0,*6F
1513573609.5,60561,6.44,72770.0,-17.33,-46.01,-45.33,0,*60
1513573610.71,60562,6.44,72770.0,-17.31,-45.95,-45.33,0,*6F
1513573611.98,60563,6.44,72764.8,-17.31,-46.15,-45.47,0,*66
1513573613.24,60564,6.44,72762.5,-17.29,-46.21,-45.47,0,*6F
1513573614.48,60565,6.44,72764.0,-17.29,-46.21,-45.53,0,*6B
1513573615.72,60566,6.44,72764.8,-17.29,-46.21,-45.53,0,*68
1513573617.02,60567,6.38,72758.8,-17.29,-46.15,-45.47,0,*6B
1513573618.31,60568,6.44,72764.8,-17.29,-46.15,-45.47,0,*64
1513573619.6,60569,6.44,72762.8,-17.29,-46.15,-45.47,0,*65
1513573620.87,60570,6.44,72766.3,-17.29,-46.01,-45.27,0,*6E
1513573622.11,60571,6.44,72758.5,-17.31,-46.01,-45.27,0,*66
1513573623.37,60572,6.38,72758.8,-17.29,-45.95,-45.27,0,*62
1513573624.64,60573,6.44,72762.8,-17.29,-45.61,-44.93,0,*66
1513573625.85,60574,6.44,72768.0,-17.27,-45.41,-44.79,0,*69
1513573627.12,60575,6.44,72770.5,-17.27,-45.27,-44.67,0,*67
1513573628.38,60576,6.44,72770.0,-17.29,-45.53,-44.67,0,*69
1513573629.64,60577,6.44,72770.3,-17.25,-45.67,-45.07,0,*64
1513573630.9,60578,6.44,72770.0,-17.25,-46.07,-45.41,0,*6C
1513573632.16,60579,6.44,72770.3,-17.25,-46.07,-45.41,0,*6D
1513573633.42,60580,6.44,72774.3,-17.25,-46.07,-45.41,0,*6B
1513573634.71,60581,6.44,72770.5,-17.25,-46.15,-45.47,0,*6F
1513573635.96,60582,6.44,72768.3,-17.27,-46.27,-45.53,0,*6A
1513573637.21,60583,6.44,72764.5,-17.27,-46.15,-45.53,0,*6A
1513573638.48,60584,6.44,72766.0,-17.27,-46.15,-45.47,0,*68
1513573639.77,60585,6.44,72764.3,-17.25,-46.15,-45.47,0,*6B
1513573641.04,60586,6.44,72766.8,-17.25,-46.15,-45.41,0,*6E
1513573642.32,60587,6.44,72768.5,-17.25,-46.07,-45.47,0,*6A
1513573643.59,60588,6.44,72770.3,-17.25,-46.07,-45.41,0,*63
1513573644.85,60589,6.44,72766.5,-17.27,-46.07,-45.47,0,*66
1513573646.09,60590,6.44,72768.0,-17.27,-46.07,-45.41,0,*68
1513573647.34,60591,6.44,72766.8,-17.27,-46.07,-45.41,0,*69
1513573648.58,60592,6.44,72766.3,-17.27,-46.07,-45.41,0,*6A
1513573649.82,60593,6.44,72760.5,-17.27,-46.07,-45.41,0,*6B
1513573651.08,60594,6.44,72762.8,-17.25,-46.07,-45.41,0,*6E
1513573652.34,60595,6.44,72762.8,-17.25,-46.07,-45.41,0,*6F
1513573653.64,60596,6.44,72758.0,-17.25,-46.15,-45.47,0,*69
1513573654.9,60597,6.44,72758.5,-17.25,-46.15,-45.41,0,*6E
1513573656.16,60598,6.44,72762.3,-17.25,-46.07,-45.41,0,*62
1513573657.45,60599,6.44,72760.5,-17.25,-46.07,-45.47,0,*65
1513573658.7,60600,6.44,72756.5,-17.23,-46.27,-45.53,0,*67
1513573659.97,60601,6.44,72758.5,-17.25,-46.27,-45.53,0,*60
1513573661.23,60602,6.38,72758.8,-17.25,-46.07,-45.41,0,*62
1513573662.46,60603,6.38,72758.3,-17.25,-45.95,-45.41,0,*6B
1513573663.7,60604,6.44,72762.3,-17.25,-45.95,-45.41,0,*6C
1513573664.96,60605,6.44,72756.3,-17.25,-45.95,-45.27,0,*6D
1513573666.17,60606,6.44,72766.0,-17.23,-45.95,-45.41,0,*68
1513573667.41,60607,6.44,72762.8,-17.23,-46.07,-45.41,0,*61
1513573668.67,60608,6.44,72766.3,-17.23,-46.15,-45.47,0,*6B
1513573669.95,60609,6.44,72764.5,-17.25,-46.15,-45.53,0,*69
1513573671.21,60610,6.44,72766.3,-17.25,-46.07,-45.41,0,*61
1513573672.47,60611,6.44,72766.0,-17.25,-45.73,-45.21,0,*66
1513573673.7,60612,6.44,72764.8,-17.23,-45.87,-45.27,0,*6E
1513573674.94,60613,6.44,72764.0,-17.23,-45.95,-45.27,0,*6C
1513573676.15,60614,6.44,72768.0,-17.23,-45.67,-45.21,0,*60
1513573677.39,60615,6.44,72768.8,-17.23,-45.95,-45.27,0,*6A
1513573678.65,60616,6.44,72768.0,-17.23,-46.07,-45.47,0,*67
1513573679.89,60617,6.44,72768.3,-17.23,-46.27,-45.67,0,*66
1513573681.13,60618,6.44,72766.8,-17.21,-46.21,-45.61,0,*6B
1513573682.39,60619,6.38,72764.0,-17.21,-46.27,-45.67,0,*6A
1513573683.62,60620,6.44,72768.8,-17.21,-46.21,-45.67,0,*66
1513573684.87,60621,6.38,72764.3,-17.23,-46.15,-45.53,0,*65
1513573686.09,60622,6.44,72764.8,-17.23,-46.35,-45.53,0,*64
1513573687.34,60623,6.44,72766.5,-17.23,-46.27,-45.53,0,*66
1513573688.58,60624,6.44,72770.5,-17.23,-46.15,-45.53,0,*60
1513573689.79,60625,6.38,72764.3,-17.23,-45.87,-45.41,0,*6A
1513573691.03,60626,6.44,72766.8,-17.23,-46.27,-45.67,0,*64
1513573692.3,60627,6.44,72766.3,-17.21,-46.27,-45.61,0,*61
1513573693.54,60628,6.44,72768.5,-17.23,-46.15,-45.67,0,*6B
1513573694.81,60629,6.38,72762.0,-17.23,-46.15,-45.47,0,*68
1513573696.05,60630,6.44,72764.8,-17.23,-46.15,-45.67,0,*62
1513573697.29,60631,6.44,72764.8,-17.23,-46.35,-45.73,0,*64
1513573698.53,60632,6.44,72764.8,-17.21,-46.21,-45.61,0,*63
1513573699.79,60633,6.44,72766.3,-17.21,-46.07,-45.61,0,*66
1513573701.06,60634,6.44,72766.5,-17.23,-46.07,-45.47,0,*67